Regional Weather Roundup
Issued by NWS

Home | Current Version | Previous Version | Graphics & Text | Print | Product List | Glossary On
Versions: 1 2 3 4 5 6 7 8 9 10 11 12 13 14 15 16 17 18 19 20 21 22 23 24 25 26 27 28 29 30 31 32 33 34 35 36 37 38 39 40 41 42 43 44 45 46 47 48 49 50
000
ASUS43 KMKX 252321
RWRWI

WISCONSIN REGIONAL WEATHER ROUNDUP
NATIONAL WEATHER SERVICE MILWAUKEE/SULLIVAN WI
600 PM CDT MON MAY 25 2015

NOTE: "FAIR" INDICATES FEW OR NO CLOUDS BELOW 12,000 FEET WITH NO
SIGNIFICANT WEATHER AND/OR OBSTRUCTIONS TO VISIBILITY.

WIZ001-002-006>008-014>016-023>028-260000-
NORTHWEST WISCONSIN

CITY           SKY/WX    TMP DP  RH WIND       PRES   REMARKS
SUPERIOR ARPT  LGT RAIN  46  45  99 NE5       29.75R
ASHLAND        CLOUDY    55  54  96 NE6       29.72R
HAYWARD        CLOUDY    66  56  70 SW10      29.74R
SIREN          CLOUDY    66  57  73 SW8       29.72F
CUMBERLAND     CLOUDY    63  55  77 SW8       29.74F
RICE LAKE      CLOUDY    67  57  70 SW7       29.76F
CHETEK         CLOUDY    68  59  74 SW7       29.75S
LADYSMITH      CLOUDY    67  59  74 W9        29.78R
EAU CLAIRE     MOSUNNY   72  58  61 SW7       29.74R
MENOMONIE      MOSUNNY   71  59  66 W7        29.74F
NEW RICHMOND   MOSUNNY   70  58  66 SW10G21   29.74F
OSCEOLA        PTSUNNY   70  59  68 SW12      29.76S
$$

WIZ003>005-009-010-017-018-260000-
NORTH CENTRAL WISCONSIN

CITY           SKY/WX    TMP DP  RH WIND       PRES   REMARKS
MANITOWISH WTR CLOUDY    65  59  80 SW16G24   29.74R
ARBOR VITAE    PTSUNNY   67  59  75 W12G20    29.76R
WOODRUFF       PTSUNNY   67  59  75 W12G20    29.76R
RHINELANDER    PTSUNNY   69  58  67 SW12      29.77R
EAGLE RIVER    PTSUNNY   67  58  74 SW13      29.75R
LAND O LAKES   CLOUDY    67  60  76 SW7G16    29.75S
PHILLIPS       CLOUDY    66  58  77 W9G20     29.76R
TOMAHAWK       PTSUNNY   70  58  64 SW8G16    29.77S
MEDFORD        MOSUNNY   71  61  71 SW10      29.77S
MERRILL        MOSUNNY   70  60  71 W9        29.78R
$$

WIZ029-030-035-036-043>047-260000-
CENTRAL WISCONSIN

CITY           SKY/WX    TMP DP  RH WIND       PRES   REMARKS
WAUSAU         MOSUNNY   71  60  68 W7        29.75S
MOSINEE        PTSUNNY   70  61  73 SW9       29.78
MARSHFIELD     MOSUNNY   74  59  59 W10       29.77R
STEVENS POINT  PTSUNNY   73  58  58 SW10G17   29.77F
WAUPACA        RAIN      78  60  55 S18       29.78R
WAUTOMA        MOSUNNY   79  62  55 SW14G23   29.78S HX  80
WISC RAPIDS    TSTM      67  60  78 SW14G21   29.80R
CAMP DOUGLAS   PTSUNNY   72  63  73 W15G24    29.79R
$$

WIZ011>013-019>022-031-037>040-048>050-260000-
NORTHEAST WISCONSIN

CITY           SKY/WX    TMP DP  RH WIND       PRES   REMARKS
ANTIGO         PTSUNNY   68  60  74 SW14      29.78S
SHAWANO        MOSUNNY   77  60  54 W13       29.76F
OCONTO         MOSUNNY   77  60  56 W16G24    29.74F
STURGEON BAY   SUNNY     75  61  60 SW13G20   29.79S
GREEN BAY      MOSUNNY   77  63  61 SW9       29.77F
MANITOWOC      MOSUNNY   78  62  57 SW17G25   29.80S HX  80
APPLETON       PTSUNNY   75  61  60 SW14      29.79F
CLINTONVILLE   PTSUNNY   75  59  57 SW9       29.76S
OSHKOSH        MOSUNNY   76  62  62 SW12      29.79F
$$

WIZ032>034-041-042-053>061-260000-
SOUTHWEST WISCONSIN

CITY           SKY/WX    TMP DP  RH WIND       PRES   REMARKS
LA CROSSE      PTSUNNY   72  63  73 SW8       29.77F
SPARTA         LGT RAIN  65  60  83 W3        29.81F
VIROQUA        PTSUNNY   74  59  60 SW18G24   29.81S
BOSCOBEL       MOSUNNY   80  61  52 SW13G30   29.81R HX  81
PRAIRIE DU CHI MOSUNNY   77  59  52 SW12G17   29.81S
PLATTEVILLE    MOSUNNY   77  63  62 S18G25    29.85F
$$

WIZ056-057-062-063-064-067-068-260000-
SOUTH CENTRAL WISCONSIN

CITY           SKY/WX    TMP DP  RH WIND       PRES   REMARKS
REEDSBURG      MOSUNNY   77  60  56 SW17G31   29.81R
BARABOO/DELLS  MOSUNNY   76  58  53 SW15G24   29.82R
LONE ROCK      MOSUNNY   78  61  55 SW16G22   29.82R HX  80
MINERAL POINT  MOSUNNY   77  61  57 SW20G28   29.85S
MADISON        PTSUNNY   77  59  53 SW12G22   29.84R
MIDDLETON      MOSUNNY   79  56  46 SW13G23   29.85R
WATERTOWN      PTSUNNY   77  63  63 SW12G20   29.84R
MONROE         PTSUNNY   77  59  53 SW18G30   29.87S
JANESVILLE     MOSUNNY   79  61  53 SW17G23   29.87R HX  80
$$

WIZ051-052-058>065-066-070>072-260000-
SOUTHEAST WISCONSIN

CITY           SKY/WX    TMP DP  RH WIND       PRES   REMARKS
MILWAUKEE      PTSUNNY   78  60  53 SW22G28   29.86F
WAUKESHA       PTSUNNY   73  59  60 SW12G25   29.87S
MILWAUKEE/TIMM PTSUNNY   79  57  47 SW14G24   29.85F HX  80
RACINE         PTSUNNY   77  59  53 SW17G29   29.89S
BURLINGTON     PTSUNNY   75  60  58 S18G29    29.88R
KENOSHA        MOSUNNY   78  61  55 SW20G29   29.89S HX  80
FOND DU LAC    MOSUNNY   77  60  55 SW17G25   29.81S
SHEBOYGAN      MOSUNNY   76  61  59 SW14G25   29.82S
WEST BEND      PTSUNNY   77  61  57 SW16G22   29.84S
JUNEAU         PTSUNNY   76  61  60 SW21G29   29.85R
$$

LSZ147-162-260000-
LAKE SUPERIOR

STATION/POSITION TIME  TEMP    WIND        PRES    WAVE
                       AIR SEA DIR/SP/G            HT/PER
                 (UTC) (F)     (DEG/KT/KT) (MB)    (FT/S)
W MID LAKE BUOY  2250   40 36   20/ 10/ 12 1068.0R   3/ 5
DEVILS ISLAND    2300   42      70/  9/ 10 1076.0R
PORT WING        2240   43      20/  5/  6 1075.0R
SAXON HARBOR     2200   48        CALM     1061.0S
$$

LMZ867-665-643>646-260000-
LAKE MICHIGAN

STATION/POSITION TIME  TEMP    WIND        PRES    WAVE
                       AIR SEA DIR/SP/G            HT/PER
                 (UTC) (F)     (DEG/KT/KT) (MB)    (FT/S)
CHAMBERS ISLAND  2200   70     200/  6/ 13 1071.0S
N MID LAKE BUOY  2250   42 37  200/ 16/ 19 1079.0S   4/ 6
NORTHPORT PIER   2200   58     160/  4/  9 1075.0R
SISTER BAY       2217   74     210/ 16/ 21   N/A
KEWAUNEE LAKESHO 2200          240/  9/ 20 1079.0R
SHEBOYGAN LAKESH 2300          210/ 15/ 19   N/A
PORT WASHINGTON  2200   80     240/  9/ 15   N/A
ATWATER BUOY     2300   73 45  210/ 17/ 21   N/A
MILWAUKEE LAKESH 2300   76     220/ 16/ 21   N/A
S MID LAKE BUOY  2250   46 38  200/ 12/ 12   N/A     2/ 5
KENOSHA   LAKESH 2300   78     220/ 12/ 23   N/A
$$

TC  - TEMPERATURE IN CELSIUS
VSB - VISIBILITY IN STATUTE MILES
WCI - WIND CHILL INDEX
HX  - HEAT INDEX



USA.gov is the U.S. government's official web portal to all federal, state and local government web resources and services.